| time (UTC) | temp F | wind direction | speed MPH | gust MPH | rain 1hr in | rain 24hr in | rain mn in | humidity % | barometer mb |
| 20260505073002 | 47 | 28 | 0.0 | 5.0 | 0.00 | 0.00 | 0.00 | 38 | 1012.8 |
| 20260505071504 | 47 | 355 | 0.0 | 7.0 | 0.00 | 0.00 | 0.00 | 40 | 1012.9 |
| 20260505070007 | 47 | 355 | 0.0 | 7.0 | 0.00 | 0.00 | 0.00 | 46 | 1012.8 |
| 20260505064518 | 47 | 314 | 0.0 | 7.0 | 0.00 | 0.00 | 0.00 | 45 | 1012.7 |
| 20260505063006 | 47 | 326 | 0.0 | 0.0 | 0.00 | 0.00 | 0.00 | 51 | 1012.8 |
| 20260505061510 | 47 | 331 | 0.0 | 2.0 | 0.00 | 0.00 | 0.00 | 52 | 1012.7 |
| 20260505060103 | 47 | 360 | 0.0 | 9.0 | 0.00 | 0.00 | 0.00 | 52 | 1012.6 |
| 20260505054628 | 47 | 20 | 0.0 | 14.0 | 0.00 | 0.00 | 0.00 | 53 | 1012.4 |
| 20260505053107 | 47 | 24 | 1.0 | 14.0 | 0.00 | 0.00 | 0.00 | 53 | 1012.2 |
| 20260505051552 | 48 | 15 | 2.0 | 16.0 | 0.00 | 0.00 | 0.00 | 53 | 1012.0 |
| 20260505041529 | 51 | 336 | 3.0 | 11.0 | 0.00 | 0.00 | 0.00 | 44 | 1011.2 |
| 20260505040028 | 50 | 343 | 4.0 | 16.0 | 0.00 | 0.00 | 0.00 | 45 | 1011.2 |
| 20260505034526 | 50 | 28 | 0.0 | 2.0 | 0.00 | 0.00 | 0.00 | 47 | 1011.1 |
| 20260505033024 | 50 | 5 | 0.0 | 4.0 | 0.00 | 0.00 | 0.00 | 46 | 1010.7 |
| 20260505031538 | 50 | 5 | 0.0 | 11.0 | 0.00 | 0.00 | 0.00 | 46 | 1010.5 |
| 20260505030019 | 50 | 355 | 0.0 | 6.0 | 0.00 | 0.00 | 0.00 | 45 | 1010.3 |
| 20260505024530 | 50 | 19 | 0.0 | 11.0 | 0.00 | 0.00 | 0.00 | 44 | 1010.1 |
| 20260505023003 | 51 | 14 | 2.0 | 11.0 | 0.00 | 0.00 | 0.00 | 43 | 1009.8 |
| 20260505021600 | 51 | 355 | 0.0 | 12.0 | 0.00 | 0.00 | 0.00 | 43 | 1009.7 |
| 20260505020058 | 51 | 32 | 0.0 | 16.0 | 0.00 | 0.00 | 0.00 | 43 | 1009.4 |
| 20260505014605 | 52 | 15 | 0.0 | 12.0 | 0.00 | 0.00 | 0.00 | 42 | 1009.3 |
| 20260505013107 | 52 | 26 | 2.0 | 17.0 | 0.00 | 0.00 | 0.00 | 40 | 1009.1 |
| 20260505011552 | 52 | 44 | 2.0 | 22.0 | 0.00 | 0.00 | 0.00 | 40 | 1008.9 |
| 20260505010049 | 53 | 37 | 5.0 | 18.0 | 0.00 | 0.00 | 0.00 | 39 | 1008.8 |
| 20260505004553 | 53 | 40 | 5.0 | 16.0 | 0.00 | 0.00 | 0.00 | 39 | 1008.6 |
| 20260505003044 | 54 | 21 | 5.0 | 16.0 | 0.00 | 0.00 | 0.00 | 40 | 1008.5 |
| 20260505001528 | 54 | 61 | 4.0 | 17.0 | 0.00 | 0.00 | 0.00 | 39 | 1008.2 |
| 20260505000039 | 54 | 62 | 10.0 | 20.0 | 0.00 | 0.00 | 0.00 | 38 | 1008.1 |
| 20260504234525 | 54 | 30 | 5.0 | 27.0 | 0.00 | 0.00 | 0.00 | 38 | 1007.8 |
| 20260504233024 | 54 | 59 | 9.0 | 21.0 | 0.00 | 0.00 | 0.00 | 39 | 1007.6 |
| 20260504231522 | 54 | 58 | 6.0 | 19.0 | 0.00 | 0.00 | 0.00 | 39 | 1007.5 |
| 20260504230020 | 54 | 31 | 9.0 | 22.0 | 0.00 | 0.00 | 0.00 | 41 | 1007.6 |
| 20260504224517 | 55 | 49 | 9.0 | 21.0 | 0.00 | 0.00 | 0.00 | 40 | 1007.5 |
| 20260504223015 | 55 | 46 | 8.0 | 22.0 | 0.00 | 0.00 | 0.00 | 39 | 1007.4 |
| 20260504221604 | 56 | 51 | 11.0 | 23.0 | 0.00 | 0.00 | 0.00 | 39 | 1007.3 |
| 20260504220058 | 56 | 56 | 10.0 | 26.0 | 0.00 | 0.00 | 0.00 | 38 | 1007.1 |
| 20260504214541 | 57 | 56 | 8.0 | 20.0 | 0.00 | 0.00 | 0.00 | 37 | 1007.0 |
| 20260504213043 | 57 | 60 | 10.0 | 23.0 | 0.00 | 0.00 | 0.00 | 37 | 1007.0 |
| 20260504211538 | 57 | 78 | 14.0 | 24.0 | 0.00 | 0.00 | 0.00 | 37 | 1007.0 |
| 20260504210035 | 56 | 42 | 13.0 | 28.0 | 0.00 | 0.00 | 0.00 | 38 | 1007.0 |
| 20260504204537 | 57 | 35 | 10.0 | 25.0 | 0.00 | 0.00 | 0.00 | 38 | 1007.0 |
| 20260504203034 | 57 | 84 | 11.0 | 24.0 | 0.00 | 0.00 | 0.00 | 38 | 1006.9 |
| 20260504201533 | 57 | 61 | 4.0 | 24.0 | 0.00 | 0.00 | 0.00 | 37 | 1006.9 |
| 20260504200033 | 57 | 61 | 9.0 | 24.0 | 0.00 | 0.00 | 0.00 | 37 | 1006.9 |
| 20260504194514 | 57 | 40 | 11.0 | 23.0 | 0.00 | 0.00 | 0.00 | 37 | 1007.2 |
| 20260504193014 | 55 | 88 | 4.0 | 19.0 | 0.00 | 0.00 | 0.00 | 40 | 1007.4 |
| 20260504191610 | 54 | 42 | 12.0 | 21.0 | 0.00 | 0.00 | 0.00 | 40 | 1007.3 |
| 20260504190121 | 54 | 53 | 9.0 | 25.0 | 0.00 | 0.00 | 0.00 | 42 | 1007.8 |
| 20260504184603 | 53 | 44 | 7.0 | 24.0 | 0.00 | 0.00 | 0.00 | 43 | 1007.9 |
| 20260504183106 | 53 | 41 | 10.0 | 25.0 | 0.00 | 0.00 | 0.00 | 45 | 1007.8 |
| 20260504181601 | 53 | 27 | 8.0 | 23.0 | 0.00 | 0.00 | 0.00 | 46 | 1008.1 |
| 20260504180112 | 53 | 84 | 10.0 | 25.0 | 0.00 | 0.00 | 0.00 | 45 | 1008.1 |
| 20260504174557 | 54 | 59 | 5.0 | 26.0 | 0.00 | 0.00 | 0.00 | 45 | 1007.9 |
| 20260504173057 | 54 | 32 | 11.0 | 27.0 | 0.00 | 0.00 | 0.00 | 45 | 1008.1 |
| 20260504171545 | 53 | 58 | 14.0 | 24.0 | 0.00 | 0.00 | 0.00 | 44 | 1008.3 |
| 20260504081522 | 50 | 257 | 0.0 | 5.0 | 0.00 | 0.00 | 0.00 | 45 | 1002.8 |